{"data":{"norad_id":68286,"epoch":"2026-05-24T19:38:58.118208Z","epoch_age_seconds":86659,"freshness":"FRESH","line1":"1 68286U 26055AA  26144.81872822  .00024358  00000+0  72959-3 0  9999","line2":"2 68286  53.1614 324.4256 0000732 106.0062 254.1021 15.34404576 11618","mean_motion":15.34404576,"eccentricity":7.32e-5,"inclination_deg":53.1614,"raan_deg":324.4256,"arg_perigee_deg":106.0062,"mean_anomaly_deg":254.1021,"bstar":0.00072959,"rev_number":1161,"period_min":93.847478202515,"perigee_km":462.18889089455,"apogee_km":463.19038791456,"semimajor_km":6840.8266394046,"source":"CELESTRAK","updated_at":"2026-05-25T13:38:21.913949Z"}}